Tracking 23726 objects as of 23-Sep-2021
HD Live streaming from Space Station
objects crossing your sky now

INSAT 4A

Track INSAT 4A now!
INSAT 4A is classified as:


NORAD ID: 28911
Int'l Code: 2005-049A
Perigee: 36,078.8 km
Apogee: 36,117.3 km
Inclination: 2.0 °
Period: 1,451.7 minutes
Semi major axis: 42469 km
RCS: 12.5892 m2 (large)
Launch date: December 21, 2005
Source: India (IND)
Launch site: FRENCH GUIANA (FRGUI)
aabbcc
Your satellite tracking list
Your tracking list is empty




NASA's NSSDC Master Catalog

Two Line Element Set (TLE):
1 28911U 05049A   21265.58093910  .00000046  00000-0  00000-0 0  9990
2 28911   2.0012  92.2770 0004530  48.7703 318.0188  0.99196062 28287
Source of the keplerian elements: AFSPC